Showing default

FFLY-1, 65320

Orbit data source: Space-Track

FFLY-1, 65320 is a payload satellite owned by Pixxel (US) in SSO that was launched on Tue, 26 Aug 2025 UTC via an FALCON 9 launch vehicle from the Air Force Western Test Range (AFWTR). Payload-class satellites include a variety of spacecraft equipped with specific instruments for various scientific and technological missions. These include communications satellites like Starlink; space stations such as the ISS; scientific satellites like the Hubble; Earth observation satellites from companies like Planet Labs, Umbra, and HawkEye 360; GPS; miniature CubeSats for education and research; and military/defense satellites.

Loading next visibility...
Identifier
65320, 2025-188F
Orbit
SSO
Country
Flag of USUS
Related business
Manufacturer
Pixxel
Mission
Operational Commercial Imaging
Bus & Motor
FIREFLY, Unknown motor
Mass
60 kg wet, 60 kg dry
Launch date (UTC)
2025-08-26 (8 months ago)
Launch vehicle
FALCON 9
Launch site
Air Force Western Test Range (AFWTR)
Object type
Payload
Rocket body
Debris
Shape & HBR
Box + 2 Pan, 14.5 m
Radar Cross Section
0.338 m², Medium (>0.1 m² and < 1m²)

Expand to show TLE details & history
Last TLE update: 10 hours ago

TLE from 10 hours ago
0 FFLY-1
1 65320U 25188F   26124.19439123  .00001255  00000-0  12643-3 0  9999
2 65320  97.7384 200.1758 0009752 327.2488  32.8126 14.92907497 37347
Epoch: 2026-05-04T04:39Z
TLE epoch observation values (Epoch: 2026-05-04T04:39:55.402Z)
Latitude
0.00001°
Longitude
-91.89213°
Altitude
586.21 km
Speed
7.57 km/s
True Right ascension
13h 20m 42s
True Declination
0° 00' 00"
Sunlit
Object was in full shadow at epoch
Visualization orbit readout
Latitude
Unknown
Longitude
Unknown
Altitude
Unknown
Speed
Unknown
Apparent Right ascension
Unknown
Apparent Declination
Unknown
Sunlit
N/A
Visualization observer readout
Local Sidereal Time
22:49:39
Azimuth
Unknown
Elevation
Unknown
Doppler factor
Unknown
Orbital elements
Apogee altitude
592.683 km
Perigee altitude
579.1 km
Semi-major axis
6,964.029 km
Eccentricity
0.00098
Inclination
97.7384°
RAAN
200.1758°
Arg. of periapsis
327.2488°
True anomaly
32.87322°
Mean anomaly
32.8126°
Eccentric anomaly
32.8429°
Mean motion
3.73467 °/min
Orbital period
96.39 mins
BSTAR
0.00012643
Loading maneuver chart data...
Computing Atmospheric mass density...
Loading historical data...
Loading historical data...
Loading historical data...
Loading historical data...
Loading historical data...
Loading historical data...
Loading historical data...

Documentation

Showing up to 5 results
|